World > North America > United States > North Carolina

Knotts Island, North Carolina Regional Weather

Lat: 36.51N, Lon: 75.92W
Wx Zone: NCZ017
Feedback

Knotts Island, NC Regional Weather

Expires:201910171700;;850651
ASUS42 KMHX 171627
RWRMHX
WEATHER ROUNDUP FOR EASTERN NORTH CAROLINA
NATIONAL WEATHER SERVICE NEWPORT/MOREHEAD CITY NC
1200 PM EDT THU OCT 17 2019

NOTE: "FAIR" INDICATES FEW OR NO CLOUDS BELOW 12,000 FEET
WITH NO SIGNIFICANT WEATHER AND/OR OBSTRUCTIONS TO VISIBILITY


NCZ015>017-031-032-045>047-102-103-171700-
NORTH COAST
  
CITY           SKY/WX    TMP DP  RH WIND       PRES   REMARKS
EDENTON        NOT AVBL                                               
ELIZABETH CITY FAIR      62  40  44 W21G28    29.79S                  
KITTY HAWK     FAIR      59  42  53 W9G21     29.77S                  
MANTEO         FAIR      59  41  51 NW15G24   29.79S                  

$$


SKY/WX - Weather  TMP - Temperature  DP - Dew Point  RH - Relative Humidity
WIND - Wind Direction/Speed PRES - Barometric Pressure VSB - Visibility
WCI - Wind Chill Index E13G22 Wind - East Wind 13 mph/Gusts of 22 mph